Regional Weather Roundup
Issued by NWS Newport/Morehead, NC

Current Version | Previous Version | Graphics & Text | Print | Product List | Glossary Off
Versions: 1 2 3 4 5 6 7 8 9 10 11 12 13 14 15 16 17 18 19 20 21 22 23 24 25 26 27 28 29 30 31 32 33 34 35 36 37 38 39 40 41 42 43 44 45 46 47 48 49 50

000
ASUS42 KMHX 222313
RWRMHX
WEATHER ROUNDUP FOR EASTERN NORTH CAROLINA
NATIONAL WEATHER SERVICE NEWPORT/MOREHEAD CITY NC
600 PM EST MON JAN 22 2018

NOTE: "FAIR" INDICATES FEW OR NO CLOUDS BELOW 12,000 FEET
WITH NO SIGNIFICANT WEATHER AND/OR OBSTRUCTIONS TO VISIBILITY

NCZ015>017-031-032-045>047-102-103-230000-
NORTH COAST

CITY           SKY/WX    TMP DP  RH WIND       PRES   REMARKS
EDENTON        CLOUDY    59  48  67 S7        30.12S
ELIZABETH CITY FAIR      54  52  93 SE6       30.12S
KITTY HAWK     FAIR      55  44  66 CALM      30.12S
MANTEO         FAIR      52  42  68 S5        30.14S

$$

NCZ045>047-081-094-103-104-230000-
CENTRAL COAST

CITY           SKY/WX    TMP DP  RH WIND       PRES   REMARKS
FRISCO         NOT AVBL

$$

NCZ095-097-098-100-101-230000-
SOUTHERN COAST

CITY           SKY/WX    TMP DP  RH WIND       PRES   REMARKS
BEAUFORT       MOCLDY    62  55  77 SE5       30.14S
CEDAR ISLAND   NOT AVBL
JACKSONVILLE   FAIR      55  55 100 SE3       30.12F
PINEY ISLAND   NOT AVBL
WILMINGTON     FAIR      54  53  97 NE3       30.13S


$$

NCZ011>013-027>030-043-044-078>080-089-090>093-098-230000-
COASTAL PLAIN

CITY           SKY/WX    TMP DP  RH WIND       PRES   REMARKS
AHOSKIE        FAIR      57  47  69 S3        30.10S
CLINTON        CLOUDY    62  53  74 CALM      30.12R
ELIZABETHTOWN  NOT AVBL
GOLDSBORO      MOCLDY    62  51  68 S3        30.09S
GREENVILLE     FAIR      59  50  72 S6        30.13R
HAVELOCK       NOT AVBL
KENANSVILLE    FAIR      59  54  82 S3        30.12S
KINSTON        CLEAR     61  52  72 S8        30.12S
NEW BERN       CLOUDY    60  53  77 SW5       30.14R
RICHLANDS      FAIR      57  55  93 SE6       30.13S
ROCKY MOUNT    FAIR      55  47  74 S3        30.10S
WASHINGTON     FAIR      61  49  65 CALM      30.11F
WHITEVILLE     CLOUDY    60  58  95 CALM      30.10F

$$

AMZ130-135-150-152-154-156-158-170-250-252-270-ANZ085-086-088-633-658-670-230000-
MARINE OBSERVATIONS

STATION/POSITION TIME  TEMP    WIND        PRES    WAVE   SWELL
                       AIR SEA DIR/SP/G            HT/PER HT/PER
                 (UTC) (F)     (DEG/KT/KT) (MB)    (FT/S) (FT/S)
CHESAPEAKE LIGHT NOT AVBL
64 E VA BEACH    2250   60 59  190/  8/  8 1021.4    1/10   2/10
DUCK             2242   51 42  160/ 10/ 11 1019.8
2 E DUCK         2300      42                N/A     1/10
OREGON INLET     2242   51 42  130/  5/  6 1020.6
13E OREGON INLT  2248      42                N/A     1/10   2/10
HATTERAS CG      2242   60 52  150/  3/  4 1020.3
DIAMOND BUOY     2300   69 72  200/ 12/ 14 1021.1
CAPE LOOKOUT     2300          150/  5/  6 1020.8
BEAUFORT LAB     2242   59 48  130/  4/  5 1020.5
30 SE NEW RVR IN 2208   61 57  190/  2/  4 1020.8
30 SE NEW RVR IN 2300      58                N/A     2/ 9
27 SE WRIGHTSVLE 2208   63 63  220/  2/  4 1020.2
5 SE WRIGHTSVLE  2208   50 47   50/  6/  8 1020.2
225 S CAPE HAT   2250   68 70  120/ 10/ 14 1022.2    2/ 9   2/ 9
41 SE CHARLESTON 2300   71 70  160/ 14/ 17 1018.7

$$



USA.gov is the U.S. government's official web portal to all federal, state and local government web resources and services.